No;Time;Interval(mi);Indoor Humidity(%);Indoor Temperature(�C);Outdoor Humidity(%);Outdoor Temperature(�C);Absolute Pressure(Hpa);Wind(m/s);Gust(m/s);Direction;Relative Pressure(Hpa);Dewpoint(�C);Windchill(�C);Total Rainfall(mm)
1;2013-05-01 00:02:01;10;39;21.0;90;9.0;1014.7;0.0;0.7;SW;1017.9;7.4;9.0;11.7;
2;2013-05-01 00:12:01;10;39;21.0;91;9.0;1014.7;0.0;0.0;SW;1017.9;7.6;9.0;11.7;
3;2013-05-01 00:22:01;10;39;21.0;92;8.9;1014.7;0.3;0.7;NE;1017.9;7.7;8.9;11.7;
4;2013-05-01 00:32:00;10;39;21.0;91;8.8;1014.9;0.3;0.7;S;1018.1;7.4;8.8;11.7;
5;2013-05-01 00:42:00;10;39;21.0;91;8.8;1014.8;0.0;0.7;SW;1018.0;7.4;8.8;11.7;
6;2013-05-01 00:52:00;10;39;21.0;91;8.7;1014.8;0.0;0.7;SW;1018.0;7.3;8.7;11.7;
7;2013-05-01 01:02:01;10;39;21.0;91;8.5;1014.8;0.0;0.3;E;1018.0;7.1;8.5;11.7;
8;2013-05-01 01:12:01;10;39;21.0;91;8.5;1014.6;0.3;1.0;NW;1017.8;7.1;8.5;11.7;
9;2013-05-01 01:22:01;10;40;20.9;92;8.4;1014.4;0.0;0.7;SW;1017.6;7.2;8.4;11.7;
10;2013-05-01 01:32:02;10;40;20.9;92;8.5;1014.2;0.0;0.3;NW;1017.4;7.3;8.5;11.7;
11;2013-05-01 01:42:02;10;40;20.9;92;8.4;1014.0;0.3;1.0;E;1017.2;7.2;8.4;11.7;
12;2013-05-01 01:52:02;10;40;20.9;92;8.3;1013.9;0.7;1.0;SW;1017.1;7.1;8.3;11.7;
13;2013-05-01 02:02:01;10;40;20.9;92;8.2;1014.0;0.3;1.4;S;1017.2;7.0;7.7;11.7;
14;2013-05-01 02:12:01;10;40;20.9;93;8.2;1013.9;0.3;1.0;E;1017.1;7.1;8.2;11.7;
15;2013-05-01 02:22:01;10;40;20.9;93;8.2;1013.6;0.3;2.4;SW;1016.8;7.1;6.8;11.7;
16;2013-05-01 02:32:02;10;40;20.9;93;8.2;1013.4;0.3;1.0;SW;1016.6;7.1;8.2;11.7;
17;2013-05-01 02:42:01;10;41;20.9;93;8.3;1013.5;0.3;1.0;E;1016.7;7.2;8.3;11.7;
18;2013-05-01 02:52:01;10;41;20.9;93;8.4;1013.8;0.3;1.0;SE;1017.0;7.3;8.4;11.7;
19;2013-05-01 03:02:00;10;41;20.9;92;8.5;1014.0;0.0;0.3;E;1017.2;7.3;8.5;11.7;
20;2013-05-01 03:12:00;10;41;20.9;92;8.7;1013.8;0.0;0.7;NW;1017.0;7.5;8.7;11.7;
21;2013-05-01 03:22:00;10;40;21.0;91;8.7;1013.6;0.3;1.0;S;1016.8;7.3;8.7;11.7;
22;2013-05-01 03:32:01;10;40;21.0;90;8.7;1013.3;0.7;1.4;NE;1016.5;7.2;8.3;11.7;
23;2013-05-01 03:42:01;10;40;21.0;89;8.7;1013.6;0.3;1.0;NE;1016.8;7.0;8.7;11.7;
24;2013-05-01 03:52:01;10;40;21.0;89;8.8;1013.5;0.3;1.4;W;1016.7;7.1;8.4;11.7;
25;2013-05-01 04:02:00;10;40;21.0;89;8.9;1013.6;0.0;0.7;NW;1016.8;7.2;8.9;11.7;
26;2013-05-01 04:12:01;10;40;21.0;89;8.9;1013.7;0.3;0.7;S;1016.9;7.2;8.9;11.7;
27;2013-05-01 04:22:01;10;40;21.0;88;8.9;1013.9;0.3;1.4;S;1017.1;7.0;8.5;11.7;
28;2013-05-01 04:32:00;10;40;21.0;87;9.0;1014.0;0.0;1.0;SW;1017.2;7.0;9.0;11.7;
29;2013-05-01 04:42:02;10;40;21.0;87;9.0;1013.9;0.7;1.0;N;1017.1;7.0;9.0;11.7;
30;2013-05-01 04:52:02;10;40;21.0;87;9.1;1013.7;1.0;1.7;NW;1016.9;7.1;8.4;11.7;
31;2013-05-01 05:02:01;10;40;21.0;87;9.2;1013.2;1.0;2.4;N;1016.4;7.1;7.9;11.7;
32;2013-05-01 05:12:01;10;40;21.0;86;9.2;1013.6;0.3;1.0;S;1016.8;7.0;9.2;11.7;
33;2013-05-01 05:22:01;10;39;21.0;86;9.3;1013.9;0.0;0.3;W;1017.1;7.1;9.3;11.7;
34;2013-05-01 05:32:01;10;39;21.0;86;9.4;1014.2;0.3;1.0;NW;1017.4;7.2;9.4;11.7;
35;2013-05-01 05:42:01;10;39;21.0;86;9.5;1014.2;0.0;0.3;S;1017.4;7.3;9.5;11.7;
36;2013-05-01 05:52:01;10;40;20.9;86;9.6;1014.0;0.3;0.7;E;1017.2;7.4;9.6;11.7;
37;2013-05-01 06:02:01;10;41;20.9;86;9.6;1014.0;0.3;0.7;NW;1017.2;7.4;9.6;11.7;
38;2013-05-01 06:12:00;10;40;20.9;86;9.7;1014.1;0.7;1.7;N;1017.3;7.5;9.1;11.7;
39;2013-05-01 06:22:00;10;40;20.9;85;9.8;1013.9;0.7;1.4;E;1017.1;7.4;9.5;11.7;
40;2013-05-01 06:32:01;10;40;20.9;85;9.8;1013.8;0.7;1.0;SW;1017.0;7.4;9.8;11.7;
41;2013-05-01 06:42:00;10;40;20.9;84;10.1;1013.6;1.0;2.4;E;1016.8;7.5;10.1;11.7;
42;2013-05-01 06:52:00;10;40;20.9;84;10.1;1013.6;0.3;1.0;S;1016.8;7.5;10.1;11.7;
43;2013-05-01 07:02:01;10;40;20.9;84;10.1;1013.6;0.7;1.4;N;1016.8;7.5;10.1;11.7;
44;2013-05-01 07:12:00;10;40;20.9;84;10.1;1013.5;0.3;1.0;SW;1016.7;7.5;10.1;11.7;
45;2013-05-01 07:22:00;10;40;20.9;84;10.3;1013.4;0.3;0.7;NW;1016.6;7.7;10.3;11.7;
46;2013-05-01 07:32:00;10;40;20.9;84;10.5;1013.8;0.3;0.7;W;1017.0;7.9;10.5;11.7;
47;2013-05-01 07:42:02;10;41;20.9;83;10.4;1014.0;0.3;1.0;W;1017.2;7.6;10.4;11.7;
48;2013-05-01 07:52:02;10;41;20.9;84;10.3;1014.0;1.0;2.4;NE;1017.2;7.7;10.3;11.7;
49;2013-05-01 08:02:01;10;42;20.9;84;10.3;1014.0;0.0;0.3;NW;1017.2;7.7;10.3;11.7;
50;2013-05-01 08:12:01;10;42;20.9;84;10.3;1013.8;0.0;0.7;N;1017.0;7.7;10.3;11.7;
51;2013-05-01 08:22:01;10;42;20.9;84;10.5;1013.4;0.3;1.0;S;1016.6;7.9;10.5;11.7;
52;2013-05-01 08:32:02;10;42;20.9;84;10.8;1013.3;0.7;1.4;E;1016.5;8.2;10.8;11.7;
53;2013-05-01 08:42:02;10;41;21.0;82;11.0;1013.2;0.7;1.0;NW;1016.4;8.0;11.0;11.7;
54;2013-05-01 08:52:02;10;41;21.0;82;11.4;1013.3;0.7;2.4;S;1016.5;8.4;11.4;11.7;
55;2013-05-01 09:02:01;10;41;21.1;81;11.6;1013.3;1.0;2.4;SW;1016.5;8.5;11.6;11.7;
56;2013-05-01 09:12:01;10;41;21.1;78;12.5;1013.0;0.0;0.7;W;1016.2;8.8;12.5;11.7;
57;2013-05-01 09:22:01;10;42;21.1;70;15.0;1013.1;0.3;1.0;WNW;1016.3;9.6;15.0;11.7;
58;2013-05-01 09:32:02;10;42;21.2;68;15.5;1012.9;0.3;1.4;NW;1016.1;9.6;15.5;11.7;
59;2013-05-01 09:42:01;10;41;21.2;66;15.9;1012.8;1.0;1.7;E;1016.0;9.6;15.9;11.7;
60;2013-05-01 09:52:01;10;41;21.2;63;16.3;1012.6;0.3;1.0;NW;1015.8;9.2;16.3;11.7;
61;2013-05-01 10:02:00;10;42;21.2;63;16.6;1012.5;0.7;2.0;NE;1015.7;9.5;16.6;11.7;
62;2013-05-01 10:13:25;10;41;21.2;62;17.2;1012.6;0.3;1.0;NNE;1015.8;9.9;17.2;11.7;
63;2013-05-01 10:23:25;10;41;21.2;---;---;1012.8;---;---;---;1016.0;---;---;11.7;
64;2013-05-01 10:32:01;10;41;21.3;62;17.1;1012.8;0.7;1.0;S;1016.0;9.8;17.1;11.7;
65;2013-05-01 10:42:01;10;41;21.2;62;17.0;1012.8;0.3;0.7;S;1016.0;9.7;17.0;11.7;
66;2013-05-01 10:52:01;10;42;21.2;64;16.6;1012.7;0.3;1.0;S;1015.9;9.8;16.6;11.7;
67;2013-05-01 11:02:01;10;42;21.2;66;16.0;1012.4;0.3;1.4;E;1015.6;9.6;16.0;11.7;
68;2013-05-01 11:12:01;10;42;21.2;67;16.3;1012.2;0.3;0.7;S;1015.4;10.2;16.3;11.7;
69;2013-05-01 11:22:01;10;42;21.2;67;16.1;1012.4;1.0;1.7;E;1015.6;10.0;16.1;11.7;
70;2013-05-01 11:32:01;10;42;21.2;69;15.4;1012.4;1.0;1.4;S;1015.6;9.7;15.4;11.7;
71;2013-05-01 11:42:01;10;42;21.2;73;14.7;1012.5;0.3;1.0;N;1015.7;9.9;14.7;11.7;
72;2013-05-01 11:52:01;10;42;21.2;75;14.7;1012.6;0.7;2.0;SW;1015.8;10.3;14.7;11.7;
73;2013-05-01 12:02:00;10;42;21.2;75;14.8;1012.5;0.0;0.7;NW;1015.7;10.4;14.8;11.7;
74;2013-05-01 12:12:00;10;42;21.2;75;14.9;1012.6;0.0;0.3;SE;1015.8;10.5;14.9;11.7;
75;2013-05-01 12:22:00;10;42;21.2;75;14.7;1012.7;0.3;1.0;N;1015.9;10.3;14.7;11.7;
76;2013-05-01 12:32:01;10;42;21.2;75;14.7;1012.5;0.0;0.7;W;1015.7;10.3;14.7;11.7;
77;2013-05-01 12:42:02;10;42;21.2;75;14.8;1012.5;0.3;0.7;NE;1015.7;10.4;14.8;11.7;
78;2013-05-01 12:52:02;10;42;21.2;75;14.7;1012.4;0.3;0.7;S;1015.6;10.3;14.7;11.7;
79;2013-05-01 13:02:01;10;42;21.2;76;14.8;1012.3;0.0;0.7;SW;1015.5;10.6;14.8;11.7;
80;2013-05-01 13:12:01;10;42;21.2;75;15.0;1012.3;0.0;0.3;SE;1015.5;10.6;15.0;11.7;
81;2013-05-01 13:22:01;10;42;21.2;74;15.2;1012.2;0.0;0.3;NE;1015.4;10.6;15.2;11.7;
82;2013-05-01 13:32:00;10;42;21.2;74;15.4;1012.1;0.0;0.0;SW;1015.3;10.8;15.4;11.7;
83;2013-05-01 13:42:00;10;42;21.2;74;15.4;1012.2;0.0;0.3;SW;1015.4;10.8;15.4;11.7;
84;2013-05-01 13:52:00;10;42;21.2;74;15.3;1012.2;0.0;0.0;NW;1015.4;10.7;15.3;11.7;
85;2013-05-01 14:02:02;10;42;21.2;74;15.2;1012.4;0.0;0.0;NW;1015.6;10.6;15.2;11.7;
86;2013-05-01 14:12:01;10;42;21.2;75;15.0;1012.5;0.3;1.0;SW;1015.7;10.6;15.0;11.7;
87;2013-05-01 14:22:01;10;42;21.2;77;14.8;1012.7;0.0;0.0;W;1015.9;10.8;14.8;11.7;
88;2013-05-01 14:32:02;10;42;21.2;77;14.7;1012.7;0.0;0.7;W;1015.9;10.7;14.7;11.7;
89;2013-05-01 14:42:01;10;42;21.1;78;14.5;1012.5;0.0;0.0;NW;1015.7;10.7;14.5;12.0;
90;2013-05-01 14:52:01;10;42;21.1;82;14.1;1012.5;0.0;0.3;SW;1015.7;11.1;14.1;12.0;
91;2013-05-01 15:02:01;10;42;21.1;86;13.7;1012.7;0.0;0.3;W;1015.9;11.4;13.7;13.2;
92;2013-05-01 15:12:01;10;42;21.1;87;13.4;1012.7;0.3;1.0;SW;1015.9;11.3;13.4;14.1;
93;2013-05-01 15:22:01;10;42;21.1;89;13.1;1012.7;0.0;0.3;W;1015.9;11.3;13.1;15.0;
94;2013-05-01 15:32:02;10;42;21.1;92;12.9;1012.8;0.0;0.0;W;1016.0;11.6;12.9;15.6;
95;2013-05-01 15:42:02;10;42;21.1;93;12.8;1012.9;0.0;0.3;W;1016.1;11.7;12.8;16.2;
96;2013-05-01 15:52:02;10;42;21.0;94;12.7;1012.5;0.0;0.0;W;1015.7;11.8;12.7;16.8;
97;2013-05-01 16:02:01;10;42;21.0;94;12.7;1012.3;0.0;0.0;NW;1015.5;11.8;12.7;17.1;
98;2013-05-01 16:12:02;10;43;21.0;95;12.7;1012.1;0.0;0.0;W;1015.3;11.9;12.7;17.4;
99;2013-05-01 16:22:02;10;43;21.0;96;12.9;1011.8;0.0;0.0;W;1015.0;12.3;12.9;17.7;
100;2013-05-01 16:32:00;10;43;21.0;96;13.1;1011.7;0.0;0.0;N;1014.9;12.5;13.1;17.7;
101;2013-05-01 16:42:00;10;43;21.1;96;13.1;1011.3;0.0;0.7;SE;1014.5;12.5;13.1;17.7;
102;2013-05-01 16:52:00;10;43;21.1;97;13.1;1011.4;0.3;1.4;SE;1014.6;12.6;13.1;17.7;
103;2013-05-01 17:02:00;10;44;21.1;97;12.9;1011.2;0.0;0.3;W;1014.4;12.4;12.9;17.7;
104;2013-05-01 17:12:01;10;44;21.2;97;12.9;1011.2;0.3;1.0;N;1014.4;12.4;12.9;17.7;
105;2013-05-01 17:22:01;10;44;21.2;---;---;1011.3;---;---;---;1014.5;---;---;17.7;
106;2013-05-01 17:32:00;10;44;21.3;97;12.8;1011.1;0.3;0.7;W;1014.3;12.3;12.8;17.7;
107;2013-05-01 17:42:00;10;44;21.2;97;12.8;1011.3;0.0;0.0;SW;1014.5;12.3;12.8;17.7;
108;2013-05-01 17:52:00;10;44;21.2;97;12.8;1011.3;0.0;0.0;NW;1014.5;12.3;12.8;17.7;
109;2013-05-01 18:02:00;10;44;21.2;97;12.8;1011.1;0.0;0.0;W;1014.3;12.3;12.8;17.7;
110;2013-05-01 18:12:00;10;44;21.2;97;12.8;1011.1;0.0;0.0;SW;1014.3;12.3;12.8;17.7;
111;2013-05-01 18:22:00;10;44;21.2;97;12.7;1011.4;0.0;0.0;W;1014.6;12.2;12.7;17.7;
112;2013-05-01 18:32:02;10;44;21.2;97;12.6;1011.4;0.0;0.0;W;1014.6;12.1;12.6;17.7;
113;2013-05-01 18:42:01;10;44;21.2;97;12.6;1011.5;0.0;0.0;NW;1014.7;12.1;12.6;17.7;
114;2013-05-01 18:52:01;10;44;21.2;97;12.7;1011.8;0.0;0.0;NW;1015.0;12.2;12.7;17.7;
115;2013-05-01 19:02:01;10;44;21.2;97;12.7;1011.8;0.0;0.0;NW;1015.0;12.2;12.7;17.7;
116;2013-05-01 19:12:02;10;44;21.2;97;12.8;1012.0;0.0;0.0;NW;1015.2;12.3;12.8;17.7;
117;2013-05-01 19:22:02;10;44;21.2;97;12.8;1012.2;0.0;0.0;NW;1015.4;12.3;12.8;17.7;
118;2013-05-01 19:32:01;10;44;21.2;97;12.9;1012.2;0.0;0.0;W;1015.4;12.4;12.9;17.7;
119;2013-05-01 19:42:00;10;45;21.2;97;12.9;1012.4;0.0;0.0;W;1015.6;12.4;12.9;17.7;
120;2013-05-01 19:52:00;10;46;21.2;97;12.9;1012.6;0.0;0.0;W;1015.8;12.4;12.9;17.7;
121;2013-05-01 20:02:00;10;47;21.2;97;12.9;1012.7;0.0;0.0;SW;1015.9;12.4;12.9;17.7;
122;2013-05-01 20:12:01;10;48;21.2;97;12.9;1012.6;0.0;0.3;W;1015.8;12.4;12.9;17.7;
123;2013-05-01 20:22:01;10;49;21.3;97;12.8;1012.7;0.0;0.0;W;1015.9;12.3;12.8;17.7;
124;2013-05-01 20:32:00;10;50;21.3;97;12.7;1012.8;0.0;0.0;W;1016.0;12.2;12.7;17.7;
125;2013-05-01 20:42:01;10;50;21.3;97;12.7;1012.8;0.0;0.3;S;1016.0;12.2;12.7;17.7;
126;2013-05-01 20:52:01;10;50;21.3;97;12.7;1012.8;0.0;0.3;SW;1016.0;12.2;12.7;17.7;
127;2013-05-01 21:02:00;10;50;21.2;97;12.7;1012.8;0.3;0.7;N;1016.0;12.2;12.7;17.7;
128;2013-05-01 21:12:02;10;50;21.2;97;12.7;1012.9;0.0;0.0;W;1016.1;12.2;12.7;17.7;
129;2013-05-01 21:22:02;10;50;21.2;97;12.6;1012.8;0.0;0.0;W;1016.0;12.1;12.6;17.7;
130;2013-05-01 21:32:01;10;49;21.2;97;12.3;1012.8;0.0;0.0;SW;1016.0;11.8;12.3;17.7;
131;2013-05-01 21:42:01;10;49;21.2;97;12.0;1012.8;0.0;0.3;SW;1016.0;11.5;12.0;17.7;
132;2013-05-01 21:52:01;10;49;21.1;98;11.8;1012.9;0.0;0.0;NW;1016.1;11.5;11.8;17.7;
133;2013-05-01 22:02:01;10;49;21.1;98;11.7;1012.9;0.0;0.0;NW;1016.1;11.4;11.7;17.7;
134;2013-05-01 22:12:01;10;48;21.1;98;11.4;1013.0;0.0;0.0;NW;1016.2;11.1;11.4;17.7;
135;2013-05-01 22:22:01;10;48;21.1;98;11.1;1013.0;0.0;0.3;NW;1016.2;10.8;11.1;17.7;
136;2013-05-01 22:32:00;10;48;21.1;98;11.0;1013.2;0.0;0.0;NW;1016.4;10.7;11.0;17.7;
137;2013-05-01 22:42:01;10;48;21.1;99;10.8;1013.1;0.0;0.0;W;1016.3;10.6;10.8;17.7;
138;2013-05-01 22:52:01;10;48;21.1;99;10.5;1013.2;0.0;0.0;W;1016.4;10.3;10.5;17.7;
139;2013-05-01 23:02:01;10;49;21.0;99;10.2;1013.0;0.0;0.0;W;1016.2;10.0;10.2;17.7;
140;2013-05-01 23:12:01;10;49;21.0;99;10.2;1013.0;0.0;0.0;W;1016.2;10.0;10.2;17.7;
141;2013-05-01 23:22:01;10;49;21.1;99;10.5;1013.1;0.0;0.0;W;1016.3;10.3;10.5;17.7;
142;2013-05-01 23:32:00;10;50;21.1;99;10.8;1013.1;0.0;0.3;SE;1016.3;10.6;10.8;17.7;
143;2013-05-01 23:42:02;10;50;21.1;98;11.0;1013.1;0.0;0.3;SW;1016.3;10.7;11.0;17.7;
144;2013-05-01 23:52:02;10;50;21.2;98;11.0;1013.2;0.3;1.4;NE;1016.4;10.7;11.0;17.7;
145;2013-05-02 00:02:01;10;52;21.2;99;10.9;1013.0;0.3;0.7;W;1016.2;10.7;10.9;17.7;
146;2013-05-02 00:12:00;10;50;21.2;99;10.8;1013.0;0.3;0.7;N;1016.2;10.6;10.8;17.7;
147;2013-05-02 00:22:00;10;50;21.2;99;10.8;1012.9;0.0;0.0;W;1016.1;10.6;10.8;17.7;
148;2013-05-02 00:32:01;10;49;21.2;99;10.8;1013.0;0.0;0.7;N;1016.2;10.6;10.8;17.7;
149;2013-05-02 00:42:00;10;49;21.2;99;10.8;1013.1;0.3;0.7;SW;1016.3;10.6;10.8;17.7;
150;2013-05-02 00:52:00;10;49;21.2;99;10.7;1013.0;0.0;0.7;NW;1016.2;10.5;10.7;17.7;
151;2013-05-02 01:02:02;10;49;21.2;99;10.6;1012.8;0.0;0.0;SW;1016.0;10.4;10.6;17.7;
152;2013-05-02 01:12:01;10;49;21.2;99;10.6;1012.9;0.7;1.4;NNW;1016.1;10.4;10.6;17.7;
153;2013-05-02 01:22:01;10;49;21.2;99;10.5;1012.7;0.3;0.7;W;1015.9;10.3;10.5;17.7;
154;2013-05-02 01:32:00;10;49;21.2;99;10.4;1012.7;0.0;0.3;W;1015.9;10.2;10.4;17.7;
155;2013-05-02 01:42:01;10;48;21.2;99;10.4;1012.8;0.0;0.0;W;1016.0;10.2;10.4;17.7;
156;2013-05-02 01:52:01;10;48;21.2;99;10.3;1012.9;0.0;0.0;W;1016.1;10.1;10.3;17.7;
157;2013-05-02 02:02:02;10;48;21.2;99;10.3;1012.7;0.0;0.0;W;1015.9;10.1;10.3;17.7;
158;2013-05-02 02:12:00;10;48;21.2;99;10.2;1012.6;0.0;0.7;W;1015.8;10.0;10.2;17.7;
159;2013-05-02 02:22:00;10;48;21.2;99;10.2;1012.6;0.0;0.0;W;1015.8;10.0;10.2;17.7;
160;2013-05-02 02:32:01;10;48;21.2;99;10.3;1012.6;0.0;0.0;SW;1015.8;10.1;10.3;17.7;
161;2013-05-02 02:42:00;10;48;21.2;99;10.3;1012.5;0.0;0.3;SW;1015.7;10.1;10.3;17.7;
162;2013-05-02 02:52:00;10;48;21.2;99;10.2;1012.6;0.3;1.0;SW;1015.8;10.0;10.2;17.7;
163;2013-05-02 03:02:01;10;48;21.1;99;10.2;1012.7;0.0;0.0;W;1015.9;10.0;10.2;17.7;
164;2013-05-02 03:12:01;10;48;21.1;99;10.2;1012.6;0.0;1.0;W;1015.8;10.0;10.2;17.7;
165;2013-05-02 03:22:01;10;48;21.1;99;10.2;1012.6;0.0;0.7;W;1015.8;10.0;10.2;17.7;
166;2013-05-02 03:32:01;10;48;21.1;99;10.2;1012.7;0.7;1.0;NW;1015.9;10.0;10.2;17.7;
167;2013-05-02 03:42:00;10;48;21.1;99;10.1;1012.6;0.0;0.3;W;1015.8;9.9;10.1;17.7;
168;2013-05-02 03:52:00;10;48;21.0;99;10.2;1012.8;0.0;0.0;SW;1016.0;10.0;10.2;17.7;
169;2013-05-02 04:02:01;10;48;21.0;99;10.2;1012.7;0.0;0.0;W;1015.9;10.0;10.2;17.7;
170;2013-05-02 04:12:00;10;48;21.0;99;10.2;1012.6;0.0;0.0;NW;1015.8;10.0;10.2;17.7;
171;2013-05-02 04:22:00;10;48;21.0;99;10.1;1012.7;0.0;0.0;W;1015.9;9.9;10.1;17.7;
172;2013-05-02 04:32:00;10;49;21.0;99;10.1;1012.7;0.0;0.3;SW;1015.9;9.9;10.1;17.7;
173;2013-05-02 04:42:01;10;49;21.1;99;10.0;1012.9;0.0;0.3;W;1016.1;9.8;10.0;17.7;
174;2013-05-02 04:52:01;10;49;21.1;99;10.0;1012.9;0.0;0.0;W;1016.1;9.8;10.0;17.7;
175;2013-05-02 05:02:01;10;49;21.1;99;10.0;1012.9;0.0;0.3;S;1016.1;9.8;10.0;17.7;
176;2013-05-02 05:12:00;10;49;21.2;99;9.9;1013.0;0.0;0.0;W;1016.2;9.8;9.9;17.7;
177;2013-05-02 05:22:00;10;49;21.2;99;10.1;1013.0;0.0;0.0;SW;1016.2;9.9;10.1;17.7;
178;2013-05-02 05:32:01;10;49;21.2;99;10.1;1013.1;0.0;0.0;N;1016.3;9.9;10.1;17.7;
179;2013-05-02 05:42:00;10;49;21.2;99;10.2;1013.0;0.0;0.3;S;1016.2;10.0;10.2;17.7;
180;2013-05-02 05:52:00;10;49;21.2;99;10.3;1013.3;0.3;0.7;N;1016.5;10.1;10.3;17.7;
181;2013-05-02 06:02:01;10;49;21.2;99;10.3;1013.3;0.0;0.3;N;1016.5;10.1;10.3;17.7;
182;2013-05-02 06:12:00;10;49;21.2;99;10.4;1013.2;0.0;0.0;N;1016.4;10.2;10.4;17.7;
183;2013-05-02 06:22:00;10;49;21.2;99;10.6;1013.3;0.0;0.0;SE;1016.5;10.4;10.6;17.7;
184;2013-05-02 06:32:01;10;48;21.2;99;10.7;1013.4;0.0;0.7;N;1016.6;10.5;10.7;17.7;
185;2013-05-02 06:42:02;10;48;21.2;99;10.8;1013.4;0.0;0.0;SW;1016.6;10.6;10.8;17.7;
186;2013-05-02 06:52:02;10;48;21.2;98;11.2;1013.6;0.0;0.0;NE;1016.8;10.9;11.2;17.7;
187;2013-05-02 07:02:01;10;48;21.2;98;11.3;1013.7;0.0;0.3;W;1016.9;11.0;11.3;17.7;
188;2013-05-02 07:12:00;10;48;21.2;98;11.4;1013.7;0.0;0.0;NW;1016.9;11.1;11.4;17.7;
189;2013-05-02 07:22:00;10;48;21.2;98;11.7;1013.8;0.0;0.0;E;1017.0;11.4;11.7;17.7;
190;2013-05-02 07:32:00;10;48;21.2;98;11.7;1013.8;0.0;0.3;W;1017.0;11.4;11.7;17.7;
191;2013-05-02 07:42:02;10;48;21.2;98;11.7;1013.8;0.0;0.3;W;1017.0;11.4;11.7;17.7;
192;2013-05-02 07:52:02;10;48;21.2;98;11.8;1013.9;0.7;1.0;S;1017.1;11.5;11.8;17.7;
193;2013-05-02 08:02:01;10;48;21.2;97;12.1;1013.9;0.3;1.0;N;1017.1;11.6;12.1;17.7;
194;2013-05-02 08:12:01;10;48;21.2;97;12.1;1013.8;0.3;1.0;N;1017.0;11.6;12.1;17.7;
195;2013-05-02 08:22:01;10;48;21.3;97;12.6;1013.9;0.0;0.7;SW;1017.1;12.1;12.6;17.7;
196;2013-05-02 08:32:01;10;48;21.2;96;13.0;1014.0;0.0;0.0;N;1017.2;12.4;13.0;17.7;
197;2013-05-02 08:42:00;10;48;21.2;95;13.3;1013.9;0.3;0.7;SW;1017.1;12.5;13.3;17.7;
198;2013-05-02 08:52:00;10;48;21.2;94;13.8;1014.0;0.0;0.0;NE;1017.2;12.9;13.8;17.7;
199;2013-05-02 09:02:01;10;48;21.2;89;15.1;1014.1;0.3;1.0;NW;1017.3;13.3;15.1;17.7;
200;2013-05-02 09:12:01;10;49;21.3;---;---;1014.2;---;---;---;1017.4;---;---;17.7;
201;2013-05-02 09:22:01;10;52;21.2;80;15.2;1014.2;0.0;0.0;NE;1017.4;11.8;15.2;17.7;
202;2013-05-02 09:32:01;10;52;21.1;83;15.2;1014.3;0.0;0.3;W;1017.5;12.3;15.2;17.7;
203;2013-05-02 09:42:01;10;52;21.1;82;15.6;1014.0;0.0;0.0;W;1017.2;12.5;15.6;17.7;
204;2013-05-02 09:52:01;10;52;21.0;82;15.9;1014.1;0.0;0.0;NW;1017.3;12.8;15.9;17.7;
205;2013-05-02 10:02:00;10;52;21.0;78;17.3;1014.1;0.0;0.0;S;1017.3;13.4;17.3;17.7;
206;2013-05-02 10:12:00;10;52;21.1;78;17.3;1014.0;0.0;0.0;S;1017.2;13.4;17.3;17.7;
207;2013-05-02 10:22:00;10;52;21.1;64;20.8;1014.1;0.3;0.7;S;1017.3;13.7;20.8;17.7;
208;2013-05-02 10:32:01;10;52;21.1;63;20.0;1013.9;0.0;0.3;SW;1017.1;12.7;20.0;17.7;
209;2013-05-02 10:42:02;10;52;21.1;65;19.6;1013.8;0.0;0.3;SE;1017.0;12.8;19.6;17.7;
210;2013-05-02 10:52:02;10;52;21.1;62;21.0;1013.8;0.0;0.7;S;1017.0;13.4;21.0;17.7;
211;2013-05-02 11:02:01;10;52;21.1;56;22.5;1013.5;0.3;0.7;S;1016.7;13.3;22.5;17.7;
212;2013-05-02 11:12:00;10;52;21.1;53;21.1;1013.5;0.3;1.0;S;1016.7;11.1;21.1;17.7;
213;2013-05-02 11:22:00;10;52;21.1;61;19.1;1013.4;0.3;0.7;E;1016.6;11.4;19.1;17.7;
214;2013-05-02 11:32:01;10;52;21.1;56;21.3;1013.4;0.0;0.3;N;1016.6;12.2;21.3;17.7;
215;2013-05-02 11:42:00;10;52;21.2;54;23.1;1013.3;0.0;0.3;S;1016.5;13.3;23.1;17.7;
216;2013-05-02 11:52:00;10;53;21.3;48;24.2;1013.4;0.3;1.0;W;1016.6;12.5;24.2;17.7;
217;2013-05-02 12:02:01;10;52;21.3;49;22.0;1013.5;0.3;0.7;SW;1016.7;10.8;22.0;17.7;
218;2013-05-02 12:12:00;10;53;21.4;49;22.0;1013.4;0.3;0.7;SW;1016.6;10.8;22.0;17.7;
219;2013-05-02 12:22:00;10;52;21.4;46;23.7;1013.4;0.0;0.3;S;1016.6;11.4;23.7;17.7;
220;2013-05-02 12:32:00;10;52;21.5;---;---;1013.4;---;---;---;1016.6;---;---;17.7;
221;2013-05-02 12:42:00;10;52;21.5;48;21.5;1013.3;0.3;1.0;E;1016.5;10.0;21.5;17.7;
222;2013-05-02 12:52:02;10;52;21.5;48;21.7;1013.3;0.0;0.3;SW;1016.5;10.2;21.7;17.7;
223;2013-05-02 13:02:01;10;52;21.5;50;20.8;1013.3;0.0;0.3;NE;1016.5;10.0;20.8;17.7;
224;2013-05-02 13:12:00;10;49;21.5;49;21.8;1013.2;0.3;0.7;SE;1016.4;10.6;21.8;17.7;
225;2013-05-02 13:22:00;10;49;21.5;45;22.0;1013.3;0.3;1.0;NW;1016.5;9.5;22.0;17.7;
226;2013-05-02 13:32:01;10;49;21.6;45;22.0;1013.2;0.3;1.0;NW;1016.4;9.5;22.0;17.7;
227;2013-05-02 13:42:00;10;48;21.6;43;22.5;1013.1;0.0;0.7;W;1016.3;9.3;22.5;17.7;
228;2013-05-02 13:52:00;10;48;21.6;43;21.6;1012.9;0.0;0.3;NW;1016.1;8.5;21.6;17.7;
229;2013-05-02 14:02:01;10;48;21.6;43;23.9;1012.6;0.0;0.7;W;1015.8;10.5;23.9;17.7;
230;2013-05-02 14:12:01;10;48;21.6;44;23.8;1012.6;0.0;0.7;SE;1015.8;10.8;23.8;17.7;
231;2013-05-02 14:22:01;10;48;21.6;42;22.9;1012.6;0.3;0.7;SE;1015.8;9.3;22.9;17.7;
232;2013-05-02 14:32:02;10;49;21.6;42;22.4;1012.6;0.7;1.4;NW;1015.8;8.8;22.4;17.7;
233;2013-05-02 14:42:02;10;49;21.6;43;22.2;1012.7;0.3;1.0;SE;1015.9;9.0;22.2;17.7;
234;2013-05-02 14:52:02;10;49;21.7;44;22.1;1012.5;0.3;0.7;SE;1015.7;9.3;22.1;17.7;
235;2013-05-02 15:02:01;10;48;21.7;47;21.1;1012.4;0.3;1.0;SE;1015.6;9.3;21.1;17.7;
236;2013-05-02 15:12:00;10;48;21.6;---;---;1012.5;---;---;---;1015.7;---;---;17.7;
237;2013-05-02 15:22:00;10;48;21.6;53;20.0;1012.6;0.0;0.3;SE;1015.8;10.1;20.0;17.7;
238;2013-05-02 15:32:01;10;48;21.5;53;20.1;1012.7;0.7;1.7;S;1015.9;10.2;20.1;17.7;
239;2013-05-02 15:43:25;10;48;21.5;56;19.9;1012.6;0.3;1.0;S;1015.8;10.9;19.9;17.7;
240;2013-05-02 15:53:25;10;48;21.4;---;---;1012.7;---;---;---;1015.9;---;---;17.7;
241;2013-05-02 16:02:00;10;48;21.4;56;19.7;1012.6;0.7;1.4;SE;1015.8;10.7;19.7;17.7;
242;2013-05-02 16:12:00;10;48;21.3;---;---;1012.7;---;---;---;1015.9;---;---;17.7;
243;2013-05-02 16:22:00;10;48;21.3;57;18.7;1012.6;0.7;1.4;N;1015.8;10.0;18.7;17.7;
244;2013-05-02 16:32:01;10;48;21.3;59;18.3;1012.7;0.3;1.0;SE;1015.9;10.1;18.3;17.7;
245;2013-05-02 16:42:00;10;48;21.2;59;18.3;1012.5;0.3;1.0;NW;1015.7;10.1;18.3;17.7;
246;2013-05-02 16:52:00;10;48;21.2;59;18.1;1012.4;0.3;1.0;W;1015.6;10.0;18.1;17.7;
247;2013-05-02 17:02:00;10;49;21.2;59;18.0;1012.5;0.3;1.0;W;1015.7;9.9;18.0;17.7;
248;2013-05-02 17:12:01;10;52;21.2;59;17.8;1012.4;0.3;1.0;NE;1015.6;9.7;17.8;17.7;
249;2013-05-02 17:22:01;10;51;21.3;60;17.6;1012.4;0.0;0.7;S;1015.6;9.7;17.6;17.7;
250;2013-05-02 17:32:02;10;52;21.4;61;17.3;1012.5;0.3;1.0;NW;1015.7;9.7;17.3;17.7;
251;2013-05-02 17:42:00;10;52;21.5;62;17.2;1012.5;0.3;1.0;E;1015.7;9.9;17.2;17.7;
252;2013-05-02 17:52:00;10;52;21.6;62;17.1;1012.7;0.0;0.7;E;1015.9;9.8;17.1;17.7;
253;2013-05-02 18:02:01;10;52;21.6;64;16.8;1012.6;0.3;0.7;SW;1015.8;9.9;16.8;17.7;
254;2013-05-02 18:12:00;10;52;21.7;66;16.4;1012.6;0.3;0.7;W;1015.8;10.0;16.4;17.7;
255;2013-05-02 18:22:00;10;52;21.7;67;16.0;1012.9;0.3;1.0;S;1016.1;9.9;16.0;17.7;
256;2013-05-02 18:32:00;10;52;21.8;69;15.8;1012.9;0.0;0.3;SE;1016.1;10.1;15.8;17.7;
257;2013-05-02 18:42:00;10;51;21.8;70;15.6;1012.9;0.3;0.7;SW;1016.1;10.1;15.6;17.7;
258;2013-05-02 18:52:00;10;52;21.8;71;15.3;1013.1;0.3;0.7;NW;1016.3;10.1;15.3;17.7;
259;2013-05-02 19:02:00;10;52;21.9;73;15.0;1013.2;0.0;0.7;NW;1016.4;10.2;15.0;17.7;
260;2013-05-02 19:12:01;10;52;21.9;74;14.9;1013.3;0.3;1.0;E;1016.5;10.3;14.9;17.7;
261;2013-05-02 19:22:01;10;52;21.9;73;14.7;1013.4;0.0;0.0;SW;1016.6;9.9;14.7;17.7;
262;2013-05-02 19:32:00;10;51;22.0;74;14.3;1013.3;0.0;0.3;SW;1016.5;9.7;14.3;17.7;
263;2013-05-02 19:42:02;10;51;22.0;76;13.9;1013.6;0.0;0.7;SW;1016.8;9.7;13.9;17.7;
264;2013-05-02 19:52:02;10;51;22.0;76;13.9;1013.6;0.0;0.3;E;1016.8;9.7;13.9;17.7;
265;2013-05-02 20:02:01;10;51;22.1;76;13.7;1013.8;0.0;0.3;W;1017.0;9.5;13.7;17.7;
266;2013-05-02 20:12:01;10;51;22.1;77;13.5;1013.8;0.0;0.3;SE;1017.0;9.5;13.5;17.7;
267;2013-05-02 20:22:01;10;51;22.1;78;13.3;1013.7;0.0;0.3;SE;1016.9;9.5;13.3;17.7;
268;2013-05-02 20:32:01;10;52;22.2;79;13.2;1013.8;0.0;0.3;W;1017.0;9.6;13.2;17.7;
269;2013-05-02 20:42:02;10;52;22.2;80;13.0;1013.9;0.0;0.0;SW;1017.1;9.6;13.0;17.7;
270;2013-05-02 20:52:02;10;52;22.3;81;12.8;1013.8;0.0;0.0;S;1017.0;9.6;12.8;17.7;
271;2013-05-02 21:02:01;10;51;22.3;82;12.7;1013.9;0.0;0.0;SW;1017.1;9.7;12.7;17.7;
272;2013-05-02 21:12:01;10;51;22.2;83;12.6;1013.9;0.3;0.7;W;1017.1;9.8;12.6;17.7;
273;2013-05-02 21:22:01;10;51;22.2;84;12.6;1013.8;0.0;0.3;E;1017.0;10.0;12.6;17.7;
274;2013-05-02 21:32:00;10;51;22.2;85;12.5;1014.0;0.3;1.0;N;1017.2;10.0;12.5;17.7;
275;2013-05-02 21:42:02;10;51;22.2;85;12.3;1014.0;0.0;0.7;SW;1017.2;9.9;12.3;17.7;
276;2013-05-02 21:52:02;10;51;22.2;85;12.2;1014.0;0.0;0.3;S;1017.2;9.8;12.2;17.7;
277;2013-05-02 22:02:00;10;51;22.2;86;12.1;1014.0;0.0;0.3;S;1017.2;9.8;12.1;17.7;
278;2013-05-02 22:12:00;10;51;22.2;87;11.9;1013.9;0.0;0.3;SW;1017.1;9.8;11.9;17.7;
279;2013-05-02 22:22:00;10;50;22.2;87;11.8;1014.0;0.0;0.3;NW;1017.2;9.7;11.8;17.7;
280;2013-05-02 22:32:02;10;51;22.2;88;11.7;1013.9;0.0;0.7;SW;1017.1;9.8;11.7;17.7;
281;2013-05-02 22:42:01;10;50;22.2;88;11.7;1013.7;0.3;0.7;S;1016.9;9.8;11.7;17.7;
282;2013-05-02 22:52:01;10;50;22.1;88;11.6;1013.8;0.0;0.3;NW;1017.0;9.7;11.6;17.7;
283;2013-05-02 23:02:01;10;50;22.1;89;11.5;1013.6;0.0;0.3;E;1016.8;9.7;11.5;17.7;
284;2013-05-02 23:12:01;10;51;22.1;90;11.5;1013.8;0.0;0.7;SW;1017.0;9.9;11.5;17.7;
285;2013-05-02 23:22:01;10;50;22.0;90;11.5;1013.7;0.0;0.3;SW;1016.9;9.9;11.5;17.7;
286;2013-05-02 23:32:02;10;50;22.0;91;11.4;1013.5;0.3;1.0;E;1016.7;10.0;11.4;17.7;
287;2013-05-02 23:42:00;10;50;22.0;91;11.3;1013.4;0.0;0.3;SE;1016.6;9.9;11.3;17.7;
288;2013-05-02 23:52:00;10;51;21.9;91;11.1;1013.4;0.0;0.3;NE;1016.6;9.7;11.1;17.7;